Hourly Weather Godziszewo

Today, 17 January, Sunday

Time Temperature Precipitation Wind Pressure Humidity
00:00 -5°C° 0.2 mm 2 mps 759 mmHg 92%
01:00 -6°C° 0.2 mm 2 mps 759 mmHg 90%
02:00 -7°C° 0 mm 2 mps 759 mmHg 89%
03:00 -8°C° 0 mm 2 mps 759 mmHg 88%
04:00 -9°C° 0 mm 3 mps 759 mmHg 87%
05:00 -9°C° 0 mm 2 mps 760 mmHg 88%
06:00 -10°C° 0 mm 2 mps 760 mmHg 90%
07:00 -10°C° 0 mm 2 mps 760 mmHg 91%
08:00 -10°C° 0 mm 2 mps 760 mmHg 89%
09:00 -10°C° 0 mm 2 mps 761 mmHg 87%
10:00 -10°C° 0 mm 2 mps 761 mmHg 85%
11:00 -9°C° 0 mm 2 mps 761 mmHg 82%
12:00 -9°C° 0 mm 2 mps 761 mmHg 78%
13:00 -8°C° 0 mm 2 mps 762 mmHg 75%
14:00 -9°C° 0 mm 2 mps 762 mmHg 78%
15:00 -9°C° 0 mm 2 mps 762 mmHg 80%
16:00 -10°C° 0 mm 2 mps 762 mmHg 83%
17:00 -10°C° 0 mm 2 mps 762 mmHg 83%
18:00 -12°C° 0 mm 2 mps 762 mmHg 84%
19:00 -12°C° 0 mm 2 mps 762 mmHg 85%
20:00 -13°C° 0 mm 2 mps 762 mmHg 85%
21:00 -14°C° 0 mm 3 mps 762 mmHg 85%
22:00 -14°C° 0 mm 3 mps 762 mmHg 85%
23:00 -14°C° 0 mm 3 mps 762 mmHg 86%

Tomorrow, 18 January, Monday

Time Temperature Precipitation Wind Pressure Humidity
00:00 -14°C° 0 mm 3 mps 762 mmHg 87%
01:00 -14°C° 0 mm 3 mps 762 mmHg 88%
02:00 -14°C° 0 mm 3 mps 762 mmHg 88%
03:00 -14°C° 0 mm 3 mps 761 mmHg 88%
04:00 -14°C° 0 mm 3 mps 761 mmHg 89%
05:00 -13°C° 0 mm 3 mps 761 mmHg 88%
06:00 -13°C° 0 mm 3 mps 761 mmHg 87%
07:00 -12°C° 0 mm 3 mps 761 mmHg 86%
08:00 -12°C° 0 mm 4 mps 761 mmHg 86%
09:00 -11°C° 0 mm 4 mps 760 mmHg 86%
10:00 -10°C° 0 mm 4 mps 760 mmHg 86%
11:00 -10°C° 0 mm 4 mps 760 mmHg 88%
12:00 -9°C° 0 mm 4 mps 759 mmHg 90%
13:00 -8°C° 0 mm 4 mps 759 mmHg 91%
14:00 -7°C° 0.1 mm 4 mps 759 mmHg 92%
15:00 -7°C° 0.1 mm 4 mps 758 mmHg 93%
16:00 -7°C° 0.1 mm 4 mps 758 mmHg 94%
17:00 -5°C° 0.5 mm 4 mps 757 mmHg 95%
18:00 -4°C° 0.5 mm 4 mps 757 mmHg 96%
19:00 -4°C° 0.5 mm 5 mps 757 mmHg 97%
20:00 -2°C° 0.6 mm 4 mps 756 mmHg 97%
21:00 -1°C° 0.6 mm 4 mps 756 mmHg 97%
22:00 -1°C° 0.6 mm 4 mps 755 mmHg 98%
23:00 0°C° 0.1 mm 4 mps 755 mmHg 97%

Day after tomorrow, 19 January, Tuesday

Time Temperature Precipitation Wind Pressure Humidity
00:00 0°C° 0.1 mm 4 mps 755 mmHg 97%
01:00 0°C° 0.1 mm 4 mps 755 mmHg 97%
02:00 0°C° 0.1 mm 4 mps 755 mmHg 97%
03:00 0°C° 0.1 mm 4 mps 754 mmHg 97%
04:00 -1°C° 0.1 mm 4 mps 754 mmHg 97%
05:00 -1°C° 0 mm 4 mps 754 mmHg 97%
06:00 -1°C° 0 mm 4 mps 753 mmHg 97%
07:00 -1°C° 0 mm 4 mps 753 mmHg 97%
08:00 -1°C° 0 mm 4 mps 753 mmHg 98%
09:00 -1°C° 0 mm 4 mps 752 mmHg 98%
10:00 -1°C° 0 mm 4 mps 752 mmHg 99%
11:00 -1°C° 0.2 mm 4 mps 752 mmHg 98%
12:00 -1°C° 0.2 mm 4 mps 751 mmHg 98%
13:00 -1°C° 0.2 mm 4 mps 751 mmHg 98%
14:00 -1°C° 0.2 mm 4 mps 751 mmHg 98%
15:00 -1°C° 0.2 mm 4 mps 750 mmHg 97%
16:00 -1°C° 0.2 mm 4 mps 750 mmHg 97%
17:00 -1°C° 0 mm 5 mps 749 mmHg 97%
18:00 -1°C° 0 mm 5 mps 749 mmHg 97%
19:00 -1°C° 0 mm 5 mps 749 mmHg 96%
20:00 -1°C° 0.2 mm 5 mps 749 mmHg 97%
21:00 -1°C° 0.2 mm 5 mps 748 mmHg 97%
22:00 0°C° 0.2 mm 5 mps 748 mmHg 98%
23:00 0°C° 0.6 mm 5 mps 748 mmHg 98%

20 January, Wednesday

Time Temperature Precipitation Wind Pressure Humidity
00:00 0°C° 0.6 mm 5 mps 747 mmHg 98%
01:00 +1°C° 0.6 mm 5 mps 747 mmHg 98%
02:00 +1°C° 0.4 mm 5 mps 747 mmHg 97%
03:00 +1°C° 0.4 mm 5 mps 747 mmHg 96%
04:00 +2°C° 0.4 mm 5 mps 747 mmHg 96%
05:00 +2°C° 0.4 mm 5 mps 747 mmHg 95%
06:00 +2°C° 0.4 mm 6 mps 747 mmHg 95%
07:00 +1°C° 0.4 mm 6 mps 747 mmHg 94%
08:00 +1°C° 0.7 mm 6 mps 747 mmHg 94%
09:00 +1°C° 0.7 mm 6 mps 747 mmHg 94%
10:00 +1°C° 0.7 mm 6 mps 747 mmHg 95%
11:00 +1°C° 0.5 mm 6 mps 747 mmHg 94%
12:00 +1°C° 0.5 mm 6 mps 747 mmHg 93%
13:00 +1°C° 0.5 mm 6 mps 747 mmHg 92%
14:00 +1°C° 0.4 mm 6 mps 747 mmHg 92%
15:00 +1°C° 0.4 mm 5 mps 747 mmHg 91%
16:00 +1°C° 0.4 mm 5 mps 747 mmHg 90%
17:00 +1°C° 0 mm 5 mps 747 mmHg 89%
18:00 +1°C° 0 mm 5 mps 747 mmHg 89%
19:00 +1°C° 0 mm 5 mps 747 mmHg 89%
20:00 +1°C° 0 mm 5 mps 747 mmHg 88%
21:00 +1°C° 0 mm 5 mps 747 mmHg 88%
22:00 +1°C° 0 mm 5 mps 747 mmHg 88%
23:00 0°C° 0 mm 5 mps 747 mmHg 87%

21 January, Thursday

Time Temperature Precipitation Wind Pressure Humidity
00:00 0°C° 0 mm 5 mps 746 mmHg 87%
01:00 0°C° 0 mm 5 mps 746 mmHg 86%
02:00 0°C° 0 mm 5 mps 746 mmHg 84%
03:00 0°C° 0 mm 5 mps 746 mmHg 82%
04:00 -1°C° 0 mm 6 mps 745 mmHg 80%
05:00 0°C° 0 mm 5 mps 745 mmHg 80%
06:00 0°C° 0 mm 5 mps 745 mmHg 80%
07:00 0°C° 0 mm 5 mps 745 mmHg 80%
08:00 -1°C° 0 mm 6 mps 745 mmHg 79%
09:00 +1°C° 0 mm 6 mps 745 mmHg 77%
10:00 +1°C° 0 mm 6 mps 745 mmHg 75%
11:00 +1°C° 0 mm 6 mps 744 mmHg 76%
12:00 +2°C° 0 mm 6 mps 744 mmHg 77%
13:00 +2°C° 0 mm 6 mps 744 mmHg 78%
14:00 +2°C° 0 mm 6 mps 744 mmHg 80%
15:00 +1°C° 0 mm 5 mps 743 mmHg 82%
16:00 +1°C° 0 mm 5 mps 743 mmHg 84%
17:00 +1°C° 0 mm 5 mps 743 mmHg 85%
18:00 +1°C° 0 mm 5 mps 743 mmHg 86%
19:00 0°C° 0 mm 5 mps 743 mmHg 87%
20:00 -1°C° 0 mm 6 mps 743 mmHg 86%
21:00 +1°C° 0 mm 6 mps 743 mmHg 85%
22:00 0°C° 0 mm 7 mps 743 mmHg 84%
23:00 0°C° 0 mm 7 mps 743 mmHg 84%

22 January, Friday

Time Temperature Precipitation Wind Pressure Humidity
00:00 0°C° 0 mm 7 mps 743 mmHg 83%
01:00 0°C° 0 mm 7 mps 743 mmHg 83%
02:00 0°C° 0 mm 7 mps 743 mmHg 84%
03:00 0°C° 0 mm 7 mps 743 mmHg 84%
04:00 0°C° 0 mm 7 mps 743 mmHg 85%
05:00 -1°C° 0 mm 7 mps 743 mmHg 86%
06:00 -1°C° 0 mm 7 mps 743 mmHg 86%
07:00 -1°C° 0 mm 6 mps 743 mmHg 87%
08:00 -1°C° 0 mm 6 mps 743 mmHg 86%
09:00 -1°C° 0 mm 6 mps 743 mmHg 86%
10:00 +1°C° 0 mm 6 mps 743 mmHg 86%
11:00 +1°C° 0 mm 6 mps 743 mmHg 85%
12:00 +2°C° 0 mm 6 mps 743 mmHg 84%
13:00 +2°C° 0 mm 5 mps 743 mmHg 83%
14:00 +2°C° 0 mm 5 mps 743 mmHg 86%
15:00 +3°C° 0 mm 4 mps 743 mmHg 88%
16:00 +1°C° 0 mm 4 mps 743 mmHg 91%
17:00 +2°C° 0 mm 3 mps 743 mmHg 92%
18:00 +1°C° 0 mm 3 mps 744 mmHg 93%
19:00 +1°C° 0 mm 3 mps 744 mmHg 94%
20:00 +1°C° 0 mm 3 mps 744 mmHg 94%
21:00 0°C° 0 mm 3 mps 744 mmHg 95%
22:00 +1°C° 0 mm 2 mps 745 mmHg 95%
23:00 +1°C° 0 mm 2 mps 745 mmHg 95%
Show more

We Need Your Consent

Meteoprog and our Service Providers may store and access personal data such as cookies, device identifiers or other similar technologies on your device and process such data to personalise content and ads, as well as provide social media features and to analyse the traffic.

  • Store and/or access information on your device

    Cookies, device identifiers or other information can be stored or accessed on your device for the purposes indicated above.

  • Personalised ads and content, ad and content measurement, audience insights, and products development

    Ads and content can be personalised based on a profile. More data can be added to better personalise ads and content. Ad and content performance can be measured. Insights about the audience who saw the ads and content can be derived. Such data can be used to develop or improve user’s experience, systems and software.

By clicking ‘I Agree’ you will allow the use of indicated cookies, device identifiers, web beacons or other similar technologies. Your settings can be changed in the browser on your device.

For certain purposes, legitimate interests may be relied on, rather than consent. You can read more about this in our Privacy and Cookie Policy.